GW5794 Weather Reports


time (UTC)temp
C
wind
direction
speed
KPH
gust
KPH
rain 1hr
cm
rain 24hr
cm
rain mn
cm
humidity
%
barometer
mb
20260906231537 16 269 4.8 12.9 0.00 0.00 0.00 79 1017.8
20260906231019 16 248 6.4 12.9 0.00 0.00 0.00 78 1017.8
20260906230517 16 218 1.6 8.0 0.00 0.00 0.00 79 1017.9
20260906230037 16 232 3.2 9.7 0.00 0.00 0.00 79 1017.8
20260906225520 15 0 3.2 9.7 0.00 0.00 0.00 80 1017.9
20260906225020 15 0 3.2 12.9 0.00 0.00 0.00 81 1018.0
20260906224541 15 226 8.0 12.9 0.00 0.00 0.00 82 1018.0
20260906224020 15 269 4.8 12.9 0.00 0.00 0.00 81 1018.0
20260906223520 15 259 4.8 11.3 0.00 0.00 0.00 82 1017.9
20260906223044 15 249 1.6 8.0 0.00 0.00 0.00 83 1018.0
20260906222518 15 159 3.2 11.3 0.00 0.00 0.00 83 1018.1
20260906222016 14 240 4.8 12.9 0.00 0.00 0.00 84 1018.1
20260906221541 14 261 4.8 12.9 0.00 0.00 0.00 85 1018.2
20260906221020 14 245 4.8 11.3 0.00 0.00 0.00 84 1018.2
20260906220520 14 243 6.4 11.3 0.00 0.00 0.00 85 1018.2
20260906220038 14 260 3.2 9.7 0.00 0.00 0.00 85 1018.3
20260906215521 14 281 3.2 9.7 0.00 0.00 0.00 86 1018.2
20260906215020 13 250 3.2 11.3 0.00 0.00 0.00 87 1018.2
20260906214537 13 238 3.2 11.3 0.00 0.00 0.00 87 1018.2
20260906214019 13 242 8.0 12.9 0.00 0.00 0.00 87 1018.2
20260906213517 13 248 6.4 12.9 0.00 0.00 0.00 88 1018.2
20260906213039 13 255 6.4 14.5 0.00 0.00 0.00 88 1018.2
20260906212516 13 281 8.0 14.5 0.00 0.00 0.00 88 1018.3
20260906212019 13 262 8.0 12.9 0.00 0.00 0.00 89 1018.3
20260906211537 13 301 8.0 11.3 0.00 0.00 0.00 88 1018.3
20260906211018 13 262 8.0 12.9 0.00 0.00 0.00 88 1018.3
20260906210519 13 254 4.8 12.9 0.00 0.00 0.00 88 1018.4
20260906205520 13 269 9.7 14.5 0.00 0.00 0.00 88 1018.5
20260906205020 13 254 8.0 12.9 0.00 0.00 0.00 88 1018.4
20260906204019 13 325 4.8 11.3 0.00 0.00 0.00 88 1018.3
20260906203519 13 229 4.8 12.9 0.00 0.00 0.00 88 1018.3
20260906202520 13 305 6.4 14.5 0.00 0.00 0.00 88 1018.3
20260906202022 13 274 6.4 12.9 0.00 0.00 0.00 88 1018.3
20260906201019 13 268 3.2 12.9 0.00 0.00 0.00 88 1018.4
20260906200518 13 278 3.2 12.9 0.00 0.00 0.00 87 1018.4
20260906195519 13 278 4.8 11.3 0.00 0.00 0.00 86 1018.5
20260906195016 13 326 4.8 11.3 0.00 0.00 0.00 86 1018.5
20260906194019 14 289 1.6 6.4 0.00 0.00 0.00 84 1018.5
20260906193518 14 298 0.0 4.8 0.00 0.00 0.00 84 1018.6
20260906192520 14 0 0.0 3.2 0.00 0.00 0.00 84 1018.7
20260906192020 14 0 0.0 3.2 0.00 0.00 0.00 83 1018.7
20260906191020 14 0 0.0 0.0 0.00 0.00 0.00 83 1018.7
20260906190520 14 0 0.0 3.2 0.00 0.00 0.00 84 1018.7
20260906185516 13 0 0.0 4.8 0.00 0.00 0.00 85 1018.7
20260906185017 13 0 1.6 4.8 0.00 0.00 0.00 85 1018.7
20260906183518 13 38 1.6 6.4 0.00 0.00 0.00 85 1018.6
20260906182519 13 29 3.2 6.4 0.00 0.00 0.00 85 1018.7
20260906182020 13 36 1.6 4.8 0.00 0.00 0.00 85 1018.8
20260906181020 13 40 3.2 6.4 0.00 0.00 0.00 86 1018.7
20260906180519 13 49 0.0 3.2 0.00 0.00 0.00 87 1018.8
20260906175520 13 49 3.2 4.8 0.00 0.00 0.00 87 1018.8
20260906175017 13 49 0.0 3.2 0.00 0.00 0.00 88 1018.9
20260906174017 12 0 0.0 6.4 0.00 0.00 0.00 89 1019.1
20260906173516 12 49 1.6 6.4 0.00 0.00 0.00 89 1019.1
20260906172020 12 338 1.6 8.0 0.00 0.00 0.00 90 1019.2
20260906171021 12 351 6.4 9.7 0.00 0.00 0.00 90 1019.2
20260906170519 12 351 4.8 8.0 0.00 0.00 0.00 90 1019.2
20260906165522 12 352 3.2 8.0 0.00 0.00 0.00 90 1019.1
20260906165020 12 342 4.8 8.0 0.00 0.00 0.00 90 1019.1
20260906164016 12 9 3.2 6.4 0.00 0.00 0.00 91 1019.2
20260906163516 12 342 3.2 6.4 0.00 0.00 0.00 91 1019.2
20260906162018 12 0 0.0 3.2 0.00 0.00 0.00 91 1019.2
20260906161019 12 0 0.0 3.2 0.00 0.00 0.00 91 1019.1
20260906160520 12 0 0.0 0.0 0.00 0.00 0.00 91 1019.0
20260906155518 12 0 0.0 0.0 0.00 0.00 0.00 91 1019.1
20260906155019 12 0 0.0 0.0 0.00 0.00 0.00 91 1018.9
20260906153518 12 0 0.0 0.0 0.00 0.00 0.00 91 1018.9
20260906152519 12 0 0.0 3.2 0.00 0.00 0.00 91 1018.7
20260906152019 12 0 0.0 8.0 0.00 0.00 0.00 91 1018.8
20260906151020 12 164 4.8 9.7 0.00 0.00 0.00 91 1018.7
20260906150519 11 189 1.6 9.7 0.00 0.00 0.00 91 1018.7
20260906145518 11 177 6.4 11.3 0.00 0.00 0.00 91 1018.6
20260906145019 11 184 4.8 8.0 0.00 0.00 0.00 91 1018.6
20260906144015 11 219 4.8 11.3 0.00 0.00 0.00 91 1018.8
20260906142519 12 233 1.6 4.8 0.00 0.00 0.00 90 1018.8
20260906142020 12 232 1.6 4.8 0.00 0.00 0.00 90 1018.6
20260906141020 12 233 1.6 9.7 0.00 0.00 0.00 90 1018.5
20260906140518 12 64 3.2 11.3 0.00 0.00 0.00 90 1018.4
20260906135519 12 80 3.2 11.3 0.00 0.00 0.00 90 1018.4
20260906135019 12 66 6.4 11.3 0.00 0.00 0.00 90 1018.4
20260906134533 12 0 1.6 12.9 0.00 0.00 0.00 90 1018.4
20260906134020 12 109 1.6 12.9 0.00 0.00 0.00 90 1018.4
20260906133519 12 85 6.4 12.9 0.00 0.00 0.00 90 1018.5
20260906132518 12 40 4.8 9.7 0.00 0.00 0.00 90 1018.4
20260906132020 12 64 3.2 12.9 0.00 0.00 0.00 90 1018.2
20260906131019 12 45 6.4 12.9 0.00 0.00 0.00 90 1018.3
20260906130518 12 94 6.4 14.5 0.00 0.00 0.00 91 1018.3
20260906125519 12 36 6.4 14.5 0.00 0.00 0.00 91 1018.3
20260906125018 12 42 4.8 14.5 0.00 0.00 0.00 91 1018.4
20260906124021 12 38 4.8 14.5 0.00 0.00 0.00 92 1018.3
20260906123521 12 44 6.4 14.5 0.00 0.00 0.00 92 1018.4
20260906122517 12 58 8.0 16.1 0.00 0.00 0.00 92 1018.3
20260906122018 12 98 8.0 16.1 0.00 0.00 0.00 92 1018.3
20260906120522 12 38 8.0 17.7 0.00 0.00 0.00 92 1018.1
20260906115520 12 9 8.0 12.9 0.00 0.00 0.00 92 1017.9
20260906115018 12 350 3.2 8.0 0.00 0.00 0.00 92 1017.9
20260906114015 11 0 0.0 1.6 0.00 0.00 0.00 92 1017.9
20260906113518 11 0 0.0 8.0 0.00 0.00 0.00 92 1017.9
20260906112018 12 168 8.0 12.9 0.00 0.00 0.00 91 1017.8
20260906111020 12 65 4.8 14.5 0.00 0.00 0.00 91 1017.8
20260906110520 12 57 6.4 9.7 0.00 0.00 0.00 91 1017.7
20260906105524 12 348 0.0 6.4 0.00 0.00 0.00 91 1017.7
20260906105016 12 0 0.0 9.7 0.00 0.00 0.00 91 1017.6
20260906104538 12 10 3.2 9.7 0.00 0.00 0.00 91 1017.6
20260906104018 12 0 0.0 4.8 0.00 0.00 0.00 91 1017.6
20260906103515 13 0 0.0 4.8 0.00 0.00 0.00 91 1017.6
20260906102526 12 0 0.0 0.0 0.00 0.00 0.00 91 1017.6
20260906101019 12 153 0.0 4.8 0.00 0.00 0.00 90 1017.6
20260906100521 12 153 1.6 3.2 0.00 0.00 0.00 90 1017.6
20260906095525 12 0 1.6 4.8 0.00 0.00 0.00 90 1017.7
20260906095020 12 0 0.0 0.0 0.00 0.00 0.00 89 1017.7
20260906094021 12 0 0.0 0.0 0.00 0.00 0.00 88 1017.7
20260906092517 12 0 0.0 0.0 0.00 0.00 0.00 87 1017.4
20260906092019 12 0 0.0 0.0 0.00 0.00 0.00 87 1017.3
20260906091020 12 0 0.0 3.2 0.00 0.00 0.00 87 1017.3
20260906090521 12 0 0.0 3.2 0.00 0.00 0.00 87 1017.3
20260906085021 13 0 0.0 0.0 0.00 0.00 0.00 87 1017.3
20260906084022 13 0 0.0 0.0 0.00 0.00 0.00 87 1017.3
20260906083520 13 0 0.0 0.0 0.00 0.00 0.00 86 1017.3
20260906082519 13 0 0.0 0.0 0.00 0.00 0.00 86 1017.2
20260906082019 13 0 0.0 0.0 0.00 0.00 0.00 86 1017.2
20260906081018 13 0 0.0 0.0 0.00 0.00 0.00 85 1017.2
20260906080518 13 0 0.0 3.2 0.00 0.00 0.00 84 1017.2
20260906080037 13 0 0.0 4.8 0.00 0.00 0.00 83 1017.2
20260906075520 13 257 3.2 4.8 0.00 0.00 0.00 83 1017.2
20260906075020 13 0 0.0 3.2 0.00 0.00 0.00 84 1017.1
20260906074020 12 0 0.0 0.0 0.00 0.00 0.00 84 1017.0
20260906073520 13 0 0.0 0.0 0.00 0.00 0.00 84 1017.0
20260906072519 13 0 0.0 3.2 0.00 0.00 0.00 84 1017.0
20260906072015 13 0 0.0 3.2 0.00 0.00 0.00 82 1017.0
20260906071017 13 0 0.0 0.0 0.00 0.00 0.00 81 1017.1
20260906070516 13 0 0.0 0.0 0.00 0.00 0.00 81 1017.1
20260906065522 13 0 0.0 0.0 0.00 0.00 0.00 82 1017.1
20260906065019 13 0 0.0 0.0 0.00 0.00 0.00 83 1017.1
20260906064021 13 0 0.0 0.0 0.00 0.00 0.00 83 1017.0
20260906063520 13 0 0.0 0.0 0.00 0.00 0.00 83 1017.0
20260906063034 13 0 0.0 0.0 0.00 0.00 0.00 83 1017.1
20260906062515 13 0 0.0 0.0 0.00 0.00 0.00 83 1017.1
20260906062016 13 0 0.0 3.2 0.00 0.00 0.00 83 1017.1
20260906061019 13 198 1.6 4.8 0.00 0.00 0.00 84 1017.1
20260906060520 13 175 3.2 4.8 0.00 0.00 0.00 84 1017.0
20260906055520 14 0 0.0 6.4 0.00 0.00 0.00 83 1016.9
20260906055018 14 0 0.0 6.4 0.00 0.00 0.00 83 1017.0
20260906054016 14 20 3.2 4.8 0.00 0.00 0.00 82 1017.0
20260906053517 14 0 0.0 6.4 0.00 0.00 0.00 79 1017.0
20260906051020 15 0 0.0 4.8 0.00 0.00 0.00 79 1016.6
20260906050517 15 0 1.6 4.8 0.00 0.00 0.00 78 1016.6
20260906045520 15 0 0.0 0.0 0.00 0.00 0.00 78 1016.5
20260906045017 15 0 0.0 0.0 0.00 0.00 0.00 78 1016.5
20260906044021 15 0 0.0 0.0 0.00 0.00 0.00 78 1016.5
20260906043516 15 0 0.0 0.0 0.00 0.00 0.00 77 1016.5
20260906042520 15 0 0.0 0.0 0.00 0.00 0.00 77 1016.6
20260906042021 15 0 0.0 0.0 0.00 0.00 0.00 77 1016.7
20260906041023 15 0 0.0 0.0 0.00 0.00 0.00 77 1016.8
20260906040519 15 0 0.0 3.2 0.00 0.00 0.00 77 1016.8
20260906035518 15 0 0.0 3.2 0.00 0.00 0.00 78 1016.9
20260906035020 15 0 0.0 3.2 0.00 0.00 0.00 78 1016.9
20260906034018 15 137 3.2 4.8 0.00 0.00 0.00 76 1016.9
20260906033519 16 137 0.0 4.8 0.00 0.00 0.00 75 1016.9
20260906032520 16 0 0.0 0.0 0.00 0.00 0.00 74 1016.9
20260906032020 16 0 0.0 0.0 0.00 0.00 0.00 73 1016.8
20260906031017 16 0 0.0 0.0 0.00 0.00 0.00 72 1016.8
20260906030517 16 0 0.0 0.0 0.00 0.00 0.00 73 1016.8
20260906030037 16 0 0.0 0.0 0.00 0.00 0.00 72 1016.7
20260906025516 16 0 0.0 0.0 0.00 0.00 0.00 72 1016.7
20260906024024 17 0 0.0 0.0 0.00 0.00 0.00 72 1016.7
20260906023518 17 0 0.0 0.0 0.00 0.00 0.00 72 1016.7
20260906022520 17 0 0.0 3.2 0.00 0.00 0.00 70 1016.7
20260906022020 18 0 0.0 3.2 0.00 0.00 0.00 68 1016.6
20260906021537 19 137 0.0 3.2 0.00 0.00 0.00 66 1016.6
20260906021020 20 0 0.0 4.8 0.00 0.00 0.00 65 1016.6
20260906020517 20 218 0.0 6.4 0.00 0.00 0.00 59 1016.6
20260906020039 20 216 1.6 6.4 0.00 0.00 0.00 59 1016.6
20260906014020 20 0 1.6 8.0 0.00 0.00 0.00 58 1016.6
20260906013520 20 227 3.2 8.0 0.00 0.00 0.00 57 1016.5
20260906013036 20 219 4.8 11.3 0.00 0.00 0.00 57 1016.6
20260906012520 20 250 3.2 11.3 0.00 0.00 0.00 57 1016.6
20260906010518 21 223 4.8 9.7 0.00 0.00 0.00 58 1016.5
20260906005520 21 248 3.2 9.7 0.00 0.00 0.00 58 1016.5
20260906005017 21 0 6.4 9.7 0.00 0.00 0.00 57 1016.4
20260906004538 21 0 0.0 8.0 0.00 0.00 0.00 59 1016.5
20260906004024 21 0 0.0 8.0 0.00 0.00 0.00 59 1016.5
20260906003519 22 206 3.2 8.0 0.00 0.00 0.00 57 1016.4
20260906003037 21 241 1.6 6.4 0.00 0.00 0.00 58 1016.5
20260906002019 20 225 0.0 3.2 0.00 0.00 0.00 63 1016.5
20260906001018 21 121 1.6 11.3 0.00 0.00 0.00 60 1016.4
20260906000518 21 160 3.2 8.0 0.00 0.00 0.00 59 1016.5
20260905235520 21 0 0.0 0.0 0.00 0.00 0.00 56 1016.6
20260905235021 20 0 0.0 0.0 0.00 0.00 0.00 60 1016.6
20260905234019 20 0 0.0 0.0 0.00 0.00 0.00 55 1016.5
20260905233519 20 0 0.0 0.0 0.00 0.00 0.00 56 1016.6
20260905232522 20 0 0.0 3.2 0.00 0.00 0.00 60 1016.7